Location: ?????
(44.4284°N, 135.2222°E)
Time: 09:31:03
(UTC+00:00)

DELTA 2 R/B (1) - Pass Details

Date: 16 January 2026
Orbit: 786 x 800 km, 39.6° (Epoch: 10 February)

Event Time Altitude Azimuth Distance (km) Brightness Sun altitude
Rises 11:04:36 0° 252° (WSW) 3,278 7.6 -34.9°
Reaches altitude 10° 11:07:08 10° 248° (WSW) 2,347 6.6 -35.4°
Enters shadow 11:09:37 26° 236° (SW) 1,515 5.3 -35.8°
